TimeCST,TemperatureF,Dew PointF,Humidity,Sea Level PressureIn,VisibilityMPH,Wind Direction,Wind SpeedMPH,Gust SpeedMPH,PrecipitationIn,Events,Conditions,WindDirDegrees,DateUTC
12:53 AM,53.1,48.0,83,30.05,10.0,SSE,9.2,-,N/A,,Clear,160,2013-03-04 06:53:00
1:53 AM,54.0,48.9,83,30.03,10.0,South,8.1,-,N/A,,Clear,170,2013-03-04 07:53:00
2:53 AM,53.1,48.9,86,30.01,10.0,South,8.1,-,N/A,,Clear,170,2013-03-04 08:53:00
3:53 AM,53.1,50.0,89,29.99,10.0,South,9.2,-,N/A,,Clear,170,2013-03-04 09:53:00
4:53 AM,53.1,50.0,89,29.97,10.0,SSE,9.2,-,N/A,,Clear,150,2013-03-04 10:53:00
5:53 AM,54.0,51.1,90,29.97,10.0,SSE,9.2,-,N/A,,Clear,160,2013-03-04 11:53:00
6:53 AM,55.9,53.1,90,29.96,10.0,South,10.4,-,N/A,,Clear,180,2013-03-04 12:53:00
7:53 AM,61.0,55.0,81,29.98,10.0,South,10.4,-,N/A,,Clear,180,2013-03-04 13:53:00
8:53 AM,66.0,55.9,70,29.98,10.0,South,23.0,31.1,N/A,,Clear,190,2013-03-04 14:53:00
9:53 AM,69.1,55.9,63,29.96,10.0,South,27.6,34.5,N/A,,Mostly Cloudy,190,2013-03-04 15:53:00
10:53 AM,70.0,57.0,63,29.96,10.0,SSW,17.3,28.8,N/A,,Overcast,200,2013-03-04 16:53:00
11:53 AM,71.1,57.0,61,29.96,10.0,SSW,23.0,32.2,N/A,,Overcast,200,2013-03-04 17:53:00
12:53 PM,72.0,57.9,61,29.92,10.0,SSW,24.2,32.2,N/A,,Overcast,200,2013-03-04 18:53:00
1:53 PM,72.0,57.9,61,29.89,10.0,SSW,20.7,34.5,N/A,,Overcast,200,2013-03-04 19:53:00
2:40 PM,71.6,59.0,64,29.88,10.0,SSW,23.0,33.4,N/A,,Overcast,200,2013-03-04 20:40:00
2:53 PM,72.0,59.0,64,29.87,10.0,SSW,23.0,31.1,N/A,,Overcast,200,2013-03-04 20:53:00
3:07 PM,71.6,57.2,60,29.88,10.0,SSW,23.0,32.2,N/A,,Overcast,200,2013-03-04 21:07:00
3:45 PM,71.6,59.0,64,29.87,10.0,South,20.7,27.6,N/A,,Overcast,190,2013-03-04 21:45:00
3:53 PM,71.1,60.1,68,29.87,10.0,South,18.4,27.6,N/A,,Overcast,190,2013-03-04 21:53:00
4:00 PM,71.6,59.0,64,29.86,10.0,South,19.6,26.5,N/A,,Overcast,190,2013-03-04 22:00:00
4:13 PM,69.8,59.0,68,29.86,10.0,SSW,17.3,28.8,N/A,,Overcast,200,2013-03-04 22:13:00
4:53 PM,69.1,59.0,70,29.85,10.0,South,17.3,25.3,N/A,,Overcast,190,2013-03-04 22:53:00
5:53 PM,66.9,60.1,79,29.85,10.0,South,16.1,24.2,N/A,,Overcast,180,2013-03-04 23:53:00
6:53 PM,64.9,60.1,84,29.85,10.0,South,12.7,-,N/A,,Mostly Cloudy,180,2013-03-05 00:53:00
7:53 PM,64.9,60.1,84,29.86,10.0,South,13.8,23.0,N/A,,Overcast,180,2013-03-05 01:53:00
8:53 PM,64.0,60.1,87,29.86,10.0,South,11.5,-,N/A,,Mostly Cloudy,180,2013-03-05 02:53:00
9:49 PM,64.4,60.8,88,29.87,10.0,South,10.4,-,N/A,,Overcast,180,2013-03-05 03:49:00
9:53 PM,64.0,60.1,87,29.86,10.0,South,11.5,-,N/A,,Overcast,180,2013-03-05 03:53:00
10:53 PM,64.9,60.1,84,29.87,10.0,South,9.2,-,N/A,,Overcast,180,2013-03-05 04:53:00
11:53 PM,64.0,60.1,87,29.88,10.0,South,8.1,-,N/A,,Overcast,190,2013-03-05 05:53:00